TimeCDT,TemperatureF,Dew PointF,Humidity,Sea Level PressureIn,VisibilityMPH,Wind Direction,Wind SpeedMPH,Gust SpeedMPH,PrecipitationIn,Events,Conditions,WindDirDegrees,DateUTC
12:15 AM,74.7,65.7,73,29.92,10.0,South,15.0,20.7,N/A,,Scattered Clouds,180,2013-05-31 05:15:00
12:35 AM,74.7,64.4,70,29.94,10.0,SW,27.6,32.2,N/A,,Mostly Cloudy,230,2013-05-31 05:35:00
12:55 AM,69.8,63.0,79,29.94,7.0,SSW,12.7,-,N/A,,Overcast,210,2013-05-31 05:55:00
1:15 AM,66.0,64.4,94,29.96,1.5,WSW,19.6,-,N/A,,Overcast,240,2013-05-31 06:15:00
1:35 AM,65.1,64.8,99,29.94,10.0,SSW,12.7,-,N/A,,Mostly Cloudy,210,2013-05-31 06:35:00
1:55 AM,65.8,64.6,96,29.94,10.0,SSW,15.0,24.2,N/A,,Scattered Clouds,200,2013-05-31 06:55:00
2:15 AM,66.4,64.6,94,29.91,10.0,South,11.5,-,N/A,,Mostly Cloudy,180,2013-05-31 07:15:00
2:35 AM,66.0,64.6,95,29.91,10.0,South,9.2,-,N/A,,Mostly Cloudy,180,2013-05-31 07:35:00
2:55 AM,66.0,64.8,96,29.90,10.0,SSE,9.2,-,N/A,,Mostly Cloudy,160,2013-05-31 07:55:00
3:15 AM,66.2,64.8,95,29.89,10.0,SSE,10.4,-,N/A,,Overcast,160,2013-05-31 08:15:00
3:35 AM,66.2,64.8,95,29.89,10.0,SSE,10.4,-,N/A,,Overcast,160,2013-05-31 08:35:00
3:55 AM,66.2,64.9,96,29.88,10.0,SSE,11.5,-,N/A,,Mostly Cloudy,160,2013-05-31 08:55:00
4:15 AM,66.6,65.3,96,29.88,10.0,South,13.8,-,N/A,,Clear,170,2013-05-31 09:15:00
4:35 AM,67.3,65.3,93,29.88,10.0,South,13.8,-,N/A,,Scattered Clouds,170,2013-05-31 09:35:00
4:55 AM,67.8,65.8,93,29.88,10.0,South,13.8,21.9,N/A,,Mostly Cloudy,180,2013-05-31 09:55:00
5:15 AM,68.2,66.2,93,29.88,10.0,South,13.8,-,N/A,,Overcast,170,2013-05-31 10:15:00
5:35 AM,68.2,66.2,93,29.88,10.0,South,12.7,-,N/A,,Mostly Cloudy,170,2013-05-31 10:35:00
5:55 AM,68.2,66.2,93,29.89,10.0,South,13.8,-,N/A,,Mostly Cloudy,170,2013-05-31 10:55:00
6:15 AM,68.4,66.2,93,29.91,10.0,South,13.8,20.7,N/A,,Overcast,180,2013-05-31 11:15:00
6:35 AM,67.6,65.7,93,29.91,10.0,South,16.1,27.6,N/A,,Overcast,170,2013-05-31 11:35:00
6:55 AM,66.9,64.9,93,29.92,10.0,South,12.7,-,N/A,,Scattered Clouds,180,2013-05-31 11:55:00
7:15 AM,66.7,64.6,93,29.91,10.0,South,6.9,17.3,N/A,,Clear,190,2013-05-31 12:15:00
7:35 AM,66.6,64.4,93,29.91,10.0,South,9.2,-,N/A,,Clear,180,2013-05-31 12:35:00
7:55 AM,66.6,64.6,93,29.92,10.0,South,10.4,-,N/A,,Clear,190,2013-05-31 12:55:00
8:15 AM,67.1,64.9,93,29.92,10.0,South,11.5,-,N/A,,Clear,180,2013-05-31 13:15:00
8:35 AM,67.8,65.5,92,29.92,10.0,South,11.5,16.1,N/A,,Clear,180,2013-05-31 13:35:00
8:55 AM,69.1,66.2,91,29.92,10.0,SSW,11.5,-,N/A,,Clear,200,2013-05-31 13:55:00
9:15 AM,70.0,66.2,88,29.92,10.0,South,15.0,-,N/A,,Clear,190,2013-05-31 14:15:00
9:35 AM,70.3,66.4,87,29.91,10.0,South,18.4,21.9,N/A,,Clear,180,2013-05-31 14:35:00
9:55 AM,70.9,66.9,87,29.91,10.0,South,13.8,19.6,N/A,,Clear,180,2013-05-31 14:55:00
10:15 AM,71.6,67.3,86,29.92,10.0,South,17.3,23.0,N/A,,Clear,180,2013-05-31 15:15:00
10:35 AM,71.8,67.1,85,29.93,10.0,South,12.7,-,N/A,,Scattered Clouds,180,2013-05-31 15:35:00
10:55 AM,71.8,66.6,84,29.93,10.0,SSW,12.7,19.6,N/A,,Clear,200,2013-05-31 15:55:00
11:15 AM,71.8,66.2,83,29.93,10.0,SSW,16.1,23.0,N/A,,Scattered Clouds,200,2013-05-31 16:15:00
11:35 AM,71.8,66.2,83,29.93,10.0,SSW,13.8,20.7,N/A,,Scattered Clouds,200,2013-05-31 16:35:00
11:55 AM,72.0,66.7,84,29.93,10.0,SSW,17.3,-,N/A,,Scattered Clouds,210,2013-05-31 16:55:00
12:15 PM,72.3,67.5,85,29.93,10.0,SSW,15.0,21.9,N/A,,Mostly Cloudy,210,2013-05-31 17:15:00
12:35 PM,72.5,68.0,86,29.92,10.0,SW,13.8,18.4,N/A,,Overcast,220,2013-05-31 17:35:00
12:55 PM,72.9,68.2,85,29.91,10.0,SSW,17.3,-,N/A,,Overcast,200,2013-05-31 17:55:00
1:15 PM,72.9,68.2,85,29.90,10.0,SSW,12.7,20.7,N/A,,Overcast,200,2013-05-31 18:15:00
1:35 PM,72.5,67.8,85,29.90,10.0,SSW,15.0,-,N/A,,Overcast,200,2013-05-31 18:35:00
1:55 PM,73.2,68.0,84,29.90,10.0,SSW,16.1,21.9,N/A,,Scattered Clouds,210,2013-05-31 18:55:00
2:15 PM,73.8,67.8,82,29.90,10.0,SSW,18.4,21.9,N/A,,Scattered Clouds,200,2013-05-31 19:15:00
2:35 PM,73.4,68.0,83,29.90,10.0,SSW,16.1,-,N/A,,Scattered Clouds,210,2013-05-31 19:35:00
2:55 PM,74.1,68.2,82,29.88,10.0,South,11.5,-,N/A,,Clear,190,2013-05-31 19:55:00
3:15 PM,74.8,68.4,80,29.88,10.0,South,12.7,20.7,N/A,,Clear,190,2013-05-31 20:15:00
3:35 PM,75.4,69.1,81,29.86,10.0,South,11.5,-,N/A,,Scattered Clouds,180,2013-05-31 20:35:00
3:55 PM,74.8,68.5,81,29.85,10.0,South,11.5,-,N/A,,Clear,190,2013-05-31 20:55:00
4:15 PM,75.0,68.5,80,29.86,10.0,SSW,10.4,16.1,N/A,,Clear,210,2013-05-31 21:15:00
4:35 PM,75.6,68.2,78,29.85,10.0,SSW,8.1,-,N/A,,Clear,200,2013-05-31 21:35:00
4:55 PM,75.7,68.0,77,29.86,10.0,SSW,10.4,-,N/A,,Clear,210,2013-05-31 21:55:00
5:15 PM,75.6,67.3,75,29.85,10.0,South,9.2,-,N/A,,Clear,190,2013-05-31 22:15:00
5:35 PM,75.9,67.5,75,29.84,10.0,South,9.2,-,N/A,,Clear,190,2013-05-31 22:35:00
5:55 PM,75.6,67.8,77,29.83,10.0,South,10.4,-,N/A,,Clear,180,2013-05-31 22:55:00
6:15 PM,75.4,68.0,78,29.83,10.0,South,13.8,-,N/A,,Scattered Clouds,190,2013-05-31 23:15:00
6:35 PM,74.8,68.0,79,29.84,10.0,South,13.8,-,N/A,,Mostly Cloudy,190,2013-05-31 23:35:00
6:55 PM,73.9,68.5,83,29.85,7.0,SW,5.8,-,N/A,,Overcast,220,2013-05-31 23:55:00
7:15 PM,72.3,68.9,89,29.83,0.5,SSE,10.4,-,N/A,,Overcast,160,2013-06-01 00:15:00
9:35 PM,66.0,65.5,98,29.84,7.0,South,5.8,-,N/A,,Unknown,170,2013-06-01 02:35:00
9:55 PM,66.2,65.7,98,29.85,10.0,SSE,6.9,-,N/A,,Overcast,150,2013-06-01 02:55:00
10:15 PM,66.6,66.2,99,29.85,10.0,SE,6.9,-,N/A,,Overcast,130,2013-06-01 03:15:00
10:35 PM,66.7,66.4,99,29.85,10.0,SE,10.4,-,N/A,,Overcast,140,2013-06-01 03:35:00
10:55 PM,66.6,66.2,99,29.84,10.0,SE,11.5,-,N/A,,Overcast,140,2013-06-01 03:55:00
11:15 PM,66.6,66.2,99,29.83,10.0,SE,10.4,-,N/A,,Overcast,140,2013-06-01 04:15:00
11:35 PM,66.7,66.4,99,29.82,10.0,SSE,10.4,-,N/A,,Overcast,150,2013-06-01 04:35:00
11:55 PM,67.1,66.7,99,29.82,10.0,SSE,9.2,-,N/A,,Overcast,160,2013-06-01 04:55:00